Skip Page Navigation
NASA JPL Caltech
NASA Logo - Jet Propulsion Laboratory + View the NASA Portal
+ Center for Near-Earth Object Studies
JPL Home Earth Solar System Stars & Galaxies Technology
JPL Solar System Dynamics
BODIES ORBITS EPHEMERIDES TOOLS PHYSICAL DATA DISCOVERY FAQ SITE MAP
JPL Small-Body Database Browser
Search: [ help ]  
344577 (2003 AA71)
Classification: Main-belt Asteroid          SPK-ID: 2344577
Ephemeris | Orbit Diagram | Orbital Elements | Mission Design | Physical Parameters | Discovery Circumstances | Close-Approach Data ]

[ hide orbit diagram ]

For accurate long-term ephemerides, please instead use our Horizons system.This orbit viewer was implemented using two-body methods, and hence should not be used for determining accurate long-term trajectories (over several years or decades) or planetary encounter circumstances.


[ revert to old Java-based viewer ]

Orbital Elements at Epoch 2459000.5 (2020-May-31.0) TDB
Reference: JPL 10 (heliocentric ecliptic J2000)
 Element Value Uncertainty (1-sigma)   Units 
e .210205631590223 6.4348e-08  
a 2.288016983097052 7.487e-09 au
q 1.80706292807598 1.4453e-07 au
i 3.408227813842211 4.216e-06 deg
node 159.170483408244 0.00010328 deg
peri 245.1356493420492 0.00010534 deg
M 62.83950044086662 1.4352e-05 deg
tp 2458779.843098447839
(2019-Oct-23.34309845)
5.045e-05 TDB
period 1264.117060152787
3.46
6.2048e-06
1.699e-08
d
yr
n .2847837525082437 1.3978e-09 deg/d
Q 2.768971038118125 9.0608e-09 au
  Orbit Determination Parameters
   # obs. used (total)      195  
   data-arc span      6244 days (17.10 yr)  
   first obs. used      2003-01-10  
   last obs. used      2020-02-14  
   planetary ephem.      DE431  
   SB-pert. ephem.      SB431-N16  
   condition code      0  
   norm. resid. RMS      .52003  
   source      ORB  
   producer      Otto Matic  
   solution date      2020-Nov-11 17:02:24  

Additional Information
 Earth MOID = .81918 au 
 Jupiter MOID = 2.63486 au 
 T_jup = 3.568 
[ show covariance matrix ]

Ephemeris | Orbit Diagram | Orbital Elements | Mission Design | Physical Parameters | Discovery Circumstances | Close-Approach Data ]

Physical Parameter Table
Parameter Symbol Value Units Sigma Reference Notes
absolute magnitude H 18.1   n/a MPO494803  

344577 (2003 AA71)          Discovered 2003-Jan-10 by Spacewatch at Kitt Peak
Reference: 20121128/Numbers.arcLast Updated: 2012-12-03

[ show close-approach data ]
Alternate Designations
 2003 AA71 = 2005 SO204 
Ephemeris | Orbit Diagram | Orbital Elements | Mission Design | Physical Parameters | Discovery Circumstances | Close-Approach Data ]
ABOUT SSD CREDITS/AWARDS PRIVACY/COPYRIGHT GLOSSARY LINKS
FirstGov 2020-Dec-02 10:28 UT
(server date/time)  
NASA Home Page
Site Manager:   Ryan S. Park
Webmaster  Alan B. Chamberlin